This is the latest recevied weather packets stored in our database for station/object N2KI-13. If no packets are shown the sender has not sent any weather packets the latest 10 day(s).
| Time | Temp. | Humidity | Pressure | Rain* | Wind** | Luminosity | Snow |
|---|---|---|---|---|---|---|---|
| 1777211704 | 8.89° C | 84% | 1019.7 hPa | 0 mm | - | - | - |
| 1777210804 | 8.33° C | 87% | 1019.8 hPa | 0 mm | - | - | - |
| 1777210204 | 7.78° C | 88% | 1019.8 hPa | 0 mm | - | - | - |
| 1777209904 | 7.78° C | 89% | 1019.9 hPa | 0 mm | - | - | - |
| 1777207504 | 6.67° C | 91% | 1019.9 hPa | 0 mm | - | - | - |
| 1777204504 | 6.11° C | 91% | 1019.3 hPa | 0 mm | - | - | - |
| 1777200303 | 5° C | 91% | 1018.6 hPa | 0 mm | - | - | - |
| 1777195204 | 5° C | 91% | 1018 hPa | 0 mm | - | - | - |
| 1777193103 | 5° C | 91% | 1017.9 hPa | 0 mm | - | - | - |
| 1777191304 | 5° C | 91% | 1017.8 hPa | 0 mm | - | - | - |
| 1777189504 | 5° C | 91% | 1017.9 hPa | 0 mm | - | - | - |
| 1777188904 | 5° C | 91% | 1018 hPa | 0 mm | - | - | - |
| 1777188004 | 5° C | 91% | 1017.8 hPa | 0.25 mm | - | - | - |
| 1777187104 | 5° C | 91% | 1017.9 hPa | 0.25 mm | - | - | - |
| 1777186504 | 5° C | 91% | 1017.7 hPa | 0.25 mm | - | - | - |
| 1777185304 | 5° C | 91% | 1017.9 hPa | 0.25 mm | - | - | - |
| 1777183203 | 5° C | 91% | 1018.2 hPa | 0.25 mm | - | - | - |
| 1777182003 | 5° C | 91% | 1018.2 hPa | 0.25 mm | - | - | - |
| 1777180504 | 5° C | 91% | 1018.4 hPa | 0.51 mm | - | - | - |
| 1777178104 | 5° C | 91% | 1018.5 hPa | 0.76 mm | - | - | - |
| 1777171205 | 5° C | 90% | 1018.6 hPa | 0.51 mm | - | - | - |
| 1777169704 | 5° C | 90% | 1018.7 hPa | 1.02 mm | - | - | - |
| 1777169404 | 5° C | 90% | 1018.7 hPa | 1.27 mm | - | - | - |
| 1777168505 | 5° C | 90% | 1018.6 hPa | 1.78 mm | - | - | - |
| 1777167304 | 5° C | 90% | 1018.5 hPa | 3.05 mm | - | - | - |
* Rain latest hour (hover to see other rain measurements)
** Current wind speed in m/s (hover to see current wind gust speed)